Weather History for Pope Field Airport, NC

Change the Weather History Date:

Saturday, October 27, 2012

  Actual Average Record
Temperature  
Mean Temperature 66 °F -  
Max Temperature 68 °F 68 °F 86 °F (2010)
Min Temperature 63 °F 45 °F 33 °F (2005)
Cooling Degree Days 1    
Growing Degree Days 16 (Base 50)    
Moisture  
Dew Point 60 °F    
Average Humidity 80    
Maximum Humidity 88    
Minimum Humidity 72    
Precipitation  
Precipitation 0.00 in - - ()
Sea Level Pressure  
Sea Level Pressure 29.74 in    
Wind  
Wind Speed 13 mph (NE)    
Max Wind Speed 20 mph    
Max Gust Speed 29 mph    
Visibility 10 miles    
Events      
Averages and records for this station are not official NWS values.
T = Trace of Precipitation, MM = Missing Value Source: NWS Daily Summary

Daily Weather History Graph

Daily Weather History Graph

Search for Another Location

Airport:

Trip Planner

Search our weather history database for the weather conditions in past years. The results will help you decide how hot, cold, wet, or windy it might be!

Date:

Astronomy

Oct. 27, 2012 Rise Set
Actual Time 7:33 AM EDT 6:26 PM EDT
Civil Twilight 7:07 AM EDT 6:52 PM EDT
Nautical Twilight 6:37 AM EDT 7:21 PM EDT
Astronomical Twilight 6:07 AM EDT 7:51 PM EDT
Moon 5:08 PM EDT (10/27) 5:29 AM EDT (10/27)
Length of Visible Light 11h 45m
Length of Day
10h 53m
Waxing Gibbous, 96% of the Moon is Illuminated
Oct 27
Waxing Gibbous
Oct 29
Full
Nov 6
Last Quarter
Nov 13
New
Nov 20
First Quarter

Hourly Weather History & Observations

Time (EDT) Temp. Dew Point Humidity Pressure Visibility Wind Dir Wind Speed Gust Speed Precip Events Conditions
12:55 AM 66.7 °F 63.1 °F 88% 29.88 in 10.0 mi NE 9.2 mph - N/A   Overcast
1:55 AM 66.7 °F 63.1 °F 88% 29.86 in 10.0 mi NE 10.4 mph 18.4 mph N/A   Overcast
2:39 AM 66.2 °F 62.6 °F 88% 29.84 in 10.0 mi NE 10.4 mph - N/A   Overcast
2:50 AM 66.2 °F 62.6 °F 88% 29.83 in 10.0 mi NE 10.4 mph - N/A   Overcast
2:55 AM 66.4 °F 62.4 °F 87% 29.82 in 10.0 mi NE 10.4 mph - N/A   Overcast
3:55 AM 65.8 °F 62.2 °F 88% 29.80 in 10.0 mi NE 13.8 mph - N/A   Overcast
4:43 AM 66.2 °F 62.6 °F 88% 29.79 in 10.0 mi NE 11.5 mph - N/A   Scattered Clouds
4:55 AM 65.5 °F 61.9 °F 88% 29.79 in 10.0 mi NE 11.5 mph - N/A   Scattered Clouds
5:02 AM 66.2 °F 62.6 °F 88% 29.78 in 10.0 mi NE 11.5 mph - N/A   Mostly Cloudy
5:05 AM 66.2 °F 62.6 °F 88% 29.78 in 10.0 mi NE 10.4 mph - N/A   Scattered Clouds
5:07 AM 66.2 °F 62.6 °F 88% 29.78 in 10.0 mi NE 12.7 mph - N/A   Mostly Cloudy
5:12 AM 66.2 °F 62.6 °F 88% 29.78 in 10.0 mi NE 12.7 mph - N/A   Mostly Cloudy
5:21 AM 64.4 °F 60.8 °F 88% 29.78 in 10.0 mi NE 11.5 mph - N/A   Scattered Clouds
5:46 AM 64.4 °F 60.8 °F 88% 29.78 in 10.0 mi NE 11.5 mph - N/A   Mostly Cloudy
5:55 AM 65.3 °F 61.3 °F 87% 29.78 in 10.0 mi NE 13.8 mph - N/A   Mostly Cloudy
6:17 AM 66.2 °F 60.8 °F 83% 29.78 in 10.0 mi NE 13.8 mph - N/A   Mostly Cloudy
6:37 AM 64.4 °F 60.8 °F 88% 29.77 in 10.0 mi NNE 11.5 mph - N/A   Mostly Cloudy
6:43 AM 64.4 °F 60.8 °F 88% 29.77 in 10.0 mi NNE 15.0 mph - N/A   Mostly Cloudy
6:45 AM 64.4 °F 60.8 °F 88% 29.77 in 10.0 mi NE 12.7 mph - N/A   Mostly Cloudy
6:46 AM 64.4 °F 60.8 °F 88% 29.77 in 10.0 mi NE 12.7 mph - N/A   Scattered Clouds
6:55 AM 65.1 °F 61.2 °F 87% 29.77 in 10.0 mi NE 13.8 mph - N/A   Partly Cloudy
7:51 AM 64.4 °F 60.8 °F 88% 29.78 in 10.0 mi NE 10.4 mph - N/A   Mostly Cloudy
7:55 AM 65.3 °F 61.2 °F 86% 29.77 in 10.0 mi NNE 15.0 mph - N/A   Mostly Cloudy
8:55 AM 66.2 °F 60.6 °F 82% 29.79 in 10.0 mi NE 13.8 mph - N/A   Mostly Cloudy
9:55 AM 66.6 °F 60.4 °F 81% 29.79 in 10.0 mi NE 17.3 mph 23.0 mph N/A   Overcast
10:55 AM 66.9 °F 60.4 °F 80% 29.78 in 10.0 mi NE 18.4 mph 24.2 mph N/A   Overcast
11:55 AM 67.1 °F 59.9 °F 78% 29.76 in 10.0 mi NNE 15.0 mph 19.6 mph N/A   Overcast
12:55 PM 67.3 °F 59.4 °F 76% 29.74 in 10.0 mi NNE 13.8 mph 21.9 mph N/A   Mostly Cloudy
1:37 PM 68.0 °F 59.0 °F 73% 29.71 in 10.0 mi NNE 18.4 mph 26.5 mph N/A   Scattered Clouds
1:40 PM 68.0 °F 59.0 °F 73% 29.71 in 10.0 mi NE 16.1 mph 26.5 mph N/A   Mostly Cloudy
1:52 PM 68.0 °F 59.0 °F 73% 29.71 in 10.0 mi NNE 19.6 mph 25.3 mph N/A   Scattered Clouds
1:55 PM 68.0 °F 58.8 °F 72% 29.71 in 10.0 mi NNE 15.0 mph 25.3 mph N/A   Scattered Clouds
2:02 PM 68.0 °F 59.0 °F 73% 29.71 in 10.0 mi NNE 15.0 mph 25.3 mph N/A   Mostly Cloudy
2:12 PM 68.0 °F 59.0 °F 73% 29.70 in 10.0 mi NE 15.0 mph 23.0 mph N/A   Mostly Cloudy
2:19 PM 68.0 °F 59.0 °F 73% 29.70 in 10.0 mi NE 16.1 mph 23.0 mph N/A   Mostly Cloudy
2:54 PM 66.2 °F 59.0 °F 78% 29.70 in 10.0 mi NNE 13.8 mph 20.7 mph N/A   Light Drizzle
2:55 PM 66.7 °F 58.3 °F 74% 29.70 in 10.0 mi NNE 15.0 mph 20.7 mph 0.00 in   Light Drizzle
3:13 PM 66.2 °F 59.0 °F 78% 29.69 in 10.0 mi NNE 12.7 mph - N/A   Overcast
3:19 PM 66.2 °F 59.0 °F 78% 29.69 in 10.0 mi NE 13.8 mph 20.7 mph N/A   Overcast
3:55 PM 66.6 °F 57.9 °F 74% 29.68 in 10.0 mi NNE 19.6 mph 28.8 mph 0.00 in   Mostly Cloudy
4:55 PM 66.4 °F 57.2 °F 72% 29.68 in 10.0 mi NNE 15.0 mph 28.8 mph N/A   Scattered Clouds
5:55 PM 65.5 °F 57.2 °F 75% 29.67 in 10.0 mi NNE 15.0 mph 24.2 mph N/A   Scattered Clouds
6:10 PM 66.2 °F 57.2 °F 73% 29.67 in 10.0 mi NNE 15.0 mph 21.9 mph N/A   Mostly Cloudy
6:26 PM 66.2 °F 57.2 °F 73% 29.67 in 10.0 mi NE 13.8 mph 21.9 mph N/A   Overcast
6:39 PM 66.2 °F 57.2 °F 73% 29.67 in 10.0 mi NNE 17.3 mph 24.2 mph N/A   Overcast
6:55 PM 65.1 °F 56.8 °F 75% 29.67 in 10.0 mi NE 15.0 mph 24.2 mph N/A   Mostly Cloudy
7:13 PM 64.4 °F 57.2 °F 77% 29.67 in 10.0 mi NNE 18.4 mph 25.3 mph N/A   Scattered Clouds
7:55 PM 64.8 °F 56.3 °F 74% 29.67 in 10.0 mi NNE 15.0 mph 27.6 mph N/A   Scattered Clouds
8:11 PM 64.4 °F 55.4 °F 73% 29.67 in 10.0 mi NNE 15.0 mph 23.0 mph N/A   Mostly Cloudy
8:55 PM 64.9 °F 55.8 °F 72% 29.67 in 10.0 mi NNE 16.1 mph 25.3 mph N/A   Overcast
9:55 PM 64.8 °F 55.8 °F 73% 29.66 in 10.0 mi NE 13.8 mph 21.9 mph N/A   Overcast
10:55 PM 64.4 °F 55.6 °F 73% 29.68 in 10.0 mi NNE 16.1 mph 25.3 mph N/A   Overcast
11:55 PM 63.7 °F 55.4 °F 74% 29.65 in 10.0 mi NNE 12.7 mph 18.4 mph N/A   Overcast